Location: Caltech
(34.1382°N, 118.1253°W)
Time: 21:01:22
(UTC-08:00)

Courier 1B - Visible Passes

Search period start: 23 November 2014 00:00
Search period end: 03 December 2014 00:00
Orbit: 963 x 1209 km, 28.3° (Epoch: 22 November)

Date Brightness Start Highest point End Pass type
(mag) Time Alt. Az. Time Alt. Az. Time Alt. Az.
23 Nov 9.6 18:42:19 10° S 18:46:12 15° SSE 18:46:48 15° SE visible
23 Nov 10.2 20:33:06 10° SW 20:33:43 12° SW 20:33:43 12° SW visible
24 Nov 9.9 17:51:18 10° SSE 17:52:32 10° SSE 17:53:45 10° SE visible
24 Nov 9.3 19:39:39 10° SW 19:43:28 24° S 19:43:28 24° S visible
25 Nov 9.1 18:46:25 10° SSW 18:52:20 24° SSE 18:53:12 24° SE visible
25 Nov 10.1 20:38:53 10° WSW 20:40:06 15° SW 20:40:06 15° SW visible
26 Nov 9.5 17:53:29 10° SSW 17:58:38 19° SSE 18:02:55 12° ESE visible
26 Nov 9.0 19:45:12 10° SW 19:49:49 32° SSW 19:49:49 32° SSW visible
27 Nov 8.7 18:51:38 10° SW 18:58:31 35° SSE 18:59:31 34° SE visible
27 Nov 10.1 20:44:59 10° WSW 20:46:25 16° WSW 20:46:25 16° WSW visible
28 Nov 9.1 17:58:14 10° SW 18:04:46 29° SSE 18:09:11 17° ESE visible
28 Nov 8.9 19:51:09 10° WSW 19:56:05 37° SW 19:56:05 37° SW visible
29 Nov 9.4 17:05:06 10° SSW 17:11:01 24° SSE 17:16:54 10° ESE visible
29 Nov 8.3 18:57:23 10° WSW 19:04:46 46° SSE 19:05:44 44° SSE visible
29 Nov 10.1 20:51:16 10° WSW 20:52:38 16° WSW 20:52:38 16° WSW visible
30 Nov 8.7 18:03:45 10° SW 18:10:57 40° SSE 18:15:23 22° ESE visible
30 Nov 8.9 19:57:21 10° WSW 20:02:17 39° SW 20:02:17 39° SW visible
01 Dec 9.0 17:10:17 10° SW 17:17:09 34° SSE 17:24:00 10° E visible
01 Dec 8.1 19:03:29 10° WSW 19:11:05 54° S 19:11:55 52° SSE visible
01 Dec 10.2 20:57:40 10° W 20:58:48 15° W 20:58:48 15° W visible
02 Dec 8.4 18:09:42 10° WSW 18:17:13 50° S 18:21:33 25° ESE visible
02 Dec 9.0 20:03:41 10° W 20:08:27 37° WSW 20:08:27 37° WSW visible
